Карточка аэропорта URKA

Внимание!
Информация на этой странице в стадии наполнения.
Если вы не увидели какой-то информации, или заметили неточность - пожалуйста сообщите нам!
Спасибо!
Команда RU-STAFF
Название аэропортаВитязево
Название аэропорта (англ.)Vityazevo
Превышение176 ft. (53.6 m.)
Координаты45°0.13200000000012', 37°20.832'
Высота перехода4000 ft
Эшелон переходаFL50 (QNH >= 1013); FL60 (QNH 977-1012); FL70 (QNH < 977)
Коды ответчика1040-1047
Зона ОрВДРостов-на-Дону РПИ (URRV)
Данные METARURKA 291200Z 24005MPS CAVOK 12/06 Q1025 R22/010070 NOSIG RMK QFE764/1019
Проноз погоды (TAF)URKA 291052Z 2912/0112 23003G08MPS CAVOK TEMPO 2912/2918 27003G08MPS BECMG 2918/2920 07003MPS BECMG 0108/0110 27003G08MPS
NOTAMshow/hide NOTAM
AWOS   TABLE

Информация о ВПП

ВПП Длина ВПП (м.) Покрытие Курс ВПП Частота ILS
042500Цементобетон36109.1
222500Цементобетон216 

Диспетчерские позиции

Позывной Наименование органа УВД Частота
URKA_R_APPАнапа-Круг118.7
URKA_TWRАнапа-Старт119.8
URKA_GNDАнапа-Руление119.0
URKAFM1119,0



Спутниковое изображение